Regional Weather Roundup
Issued by NWS

Home | Current Version | Previous Version | Graphics & Text | Print | Product List | Glossary On
Versions: 1 2 3 4 5 6 7 8 9 10 11 12 13 14 15 16 17 18 19 20 21 22 23 24 25 26 27 28 29 30 31 32 33 34 35 36 37 38 39 40 41 42 43 44 45 46 47 48 49 50
000
ASUS43 KLOT 172308
RWRIL

ILLINOIS REGIONAL WEATHER ROUNDUP
NATIONAL WEATHER SERVICE CHICAGO/ROMEOVILLE IL
500 PM CST WED JAN 17 2018

NOTE: "FAIR" INDICATES FEW OR NO CLOUDS BELOW 12,000 FEET WITH NO
SIGNIFICANT WEATHER AND/OR OBSTRUCTIONS TO VISIBILITY.

* THESE STATIONS ARE NOT UNDER NWS QUALITY CONTROL. THEY ALSO MAY NOT
  REPORT WEATHER SUCH AS PRECIPITATION OR FOG.

ILZ001-002-007-009-015-016-024-180000-
NORTHWEST ILLINOIS

CITY           SKY/WX    TMP DP  RH WIND       PRES   REMARKS
MOLINE         FAIR      21  11  65 SW12      30.41F WCI   9
STERLING*      FAIR      18  11  74 SW12G18   30.39F WCI   5
SAVANNA*       FAIR      19  10  70 SW12      30.39S WCI   6
$$

ILZ003-004-008-010-011-017-018-180000-
NORTH CENTRAL ILLINOIS

CITY           SKY/WX    TMP DP  RH WIND       PRES   REMARKS
ROCKFORD       FAIR      18   8  65 SW14G21   30.36F WCI   4
FREEPORT*      FAIR      17  10  73 SW16G22   30.36S WCI   1
ROCHELLE*      FAIR      17  10  74 SW15      30.38S WCI   3
DE KALB*       FAIR      18  10  71 SW15      30.36F WCI   4
PERU*          FAIR      18   9  66 SW14      30.42F WCI   4
$$

ILZ005-006-012>014-019>023-180000-
NORTHEAST ILLINOIS

CITY           SKY/WX    TMP DP  RH WIND       PRES   REMARKS
CHICAGO-OHARE  MOCLDY    20   8  60 SW17G24   30.36F WCI   5
CHICAGO-MIDWAY MOCLDY    20   9  62 SW13      30.38F WCI   7
AURORA         FAIR      17   9  70 S13       30.38F WCI   4
LANSING*       FAIR      16  11  81 SW12      30.41F WCI   3
JOLIET*        FAIR      19  10  69 SW9       30.42F WCI   8
WAUKEGAN       FAIR      19   8  62 SW15G28   30.29F WCI   5
DUPAGE AIRPORT FAIR      17  10  74 SW17      30.36F WCI   1
KANKAKEE*      FAIR      16   9  75 SW10      30.45F WCI   3
WHEELING       FAIR      20  10  65 SW12      30.36F WCI   8
MORRIS*        FAIR      18   9  69 SW9       30.41F WCI   6
ROMEOVILLE*    FAIR      17  10  75 SW12      30.39F WCI   4
NORTHERLY ISL    N/A     20   8  60 SW15        N/A  WCI   6
$$

LMZ740>746-180000-
SOUTHERN LAKE MICHIGAN

STATION/POSITION SKY/WX   TEMP    WIND        PRES    VSBY  WAVE
                          AIR SEA DIR/SP/G                  HT/PER
                          (F)     (DEG/KT/KT) (MB)    (MI)  (FT/S)
HARRISON CRIB              22     220/ 20/ 24   N/A
BURNHAM HARBOR             20     220/ 13/ 16   N/A
CALUMET HARBOR             18     200/ 12/ 16 1028.3F
BURNS HARBOR               17     210/ 13/ 18 1029.8F
MICHIGAN CITY              18     190/ 16/ 20   N/A
$$

ILZ025>027-034>036-040-047-049-050-058-095>099-180000-
WEST-CENTRAL ILLINOIS

CITY           SKY/WX    TMP DP  RH WIND       PRES   REMARKS
QUINCY         CLEAR     20   9  62 SW10      30.50F WCI   9
GALESBURG*     FAIR      18  12  76 SW13      30.45F WCI   5
MACOMB*        CLEAR     19  11  70 SW14      30.50F WCI   6
JACKSONVILLE*  CLEAR     21   9  60 SW12      30.52F WCI   9
PITTSFIELD*    CLEAR     21  10  62 SW8       30.53F WCI  12
$$

ILZ028>032-037-038-041>044-048-051>054-059>061-180000-
CENTRAL ILLINOIS

CITY           SKY/WX    TMP DP  RH WIND       PRES   REMARKS
PONTIAC        FAIR      16  12  84 SW12      30.46F WCI   3
BLOOMINGTON    FAIR      17  10  74 SW12      30.47F WCI   4
DECATUR        FAIR      18  12  77 SW12      30.52F WCI   5
PEORIA         FAIR      20  10  65 SW12      30.47F WCI   8
LACON*         FAIR      20   9  61 SW12G17   30.44F WCI   8
LINCOLN*       FAIR      21  12  68 SW7       30.50F WCI  12
SPRINGFIELD    FAIR      22  11  62 SW8       30.52F WCI  12
TAYLORVILLE    FAIR      19  10  65 SW9       30.54F WCI   9
$$

ILZ033-039-045-046-055>057-062-063-180000-
EAST-CENTRAL ILLINOIS

CITY           SKY/WX    TMP DP  RH WIND       PRES   REMARKS
CHAMPAIGN      FAIR      15  10  80 SW13      30.50F WCI   1
DANVILLE*      FAIR      13   8  81 SW12      30.46F WCI  -1
RANTOUL*       FAIR      17  11  80 SW9       30.49F WCI   5
MATTOON        FAIR      16   9  74 SW6       30.52F WCI   7
PARIS*         FAIR      11   7  81 SW6       30.55S WCI   2
$$

ILZ079-100>102-180000-
SOUTHWEST ILLINOIS

CITY           SKY/WX    TMP DP  RH WIND       PRES   REMARKS
ALTON          CLEAR     21  10  63 SW8       30.56F WCI  12
BELLEVILLE     CLEAR     24   8  49 SW5       30.56F WCI  18
CAHOKIA*       CLEAR     25   8  48 SW3       30.57F
SPARTA*        CLEAR     24  12  59 S3        30.58F
$$

ILZ064>066-069>071-074>076-080>082-084>086-088>090-092>094-180000-
SOUTH-CENTRAL ILLINOIS

CITY           SKY/WX    TMP DP  RH WIND       PRES   REMARKS
CARBONDALE     FAIR      23   9  55 CALM      30.60F
CAIRO*         FAIR      13   6  73 S5        30.66F WCI   5
EFFINGHAM*     FAIR      18  10  73 S3        30.58F
MARION         CLEAR     23   7  50 W6        30.62F WCI  16
MT. VERNON     FAIR      18   8  65 S6        30.59F WCI  10
CENTRALIA*     CLEAR     20  13  74 SW5       30.58S WCI  13
SALEM*         FAIR      20  11  67 S6        30.58S WCI  12
METROPOLIS*    FAIR      17   8  65 SW6       30.65S WCI   9
$$

ILZ067-068-072-073-078-083-087-091-180000-
SOUTHEAST ILLINOIS

CITY           SKY/WX    TMP DP  RH WIND       PRES   REMARKS
LAWRENCEVILLE  FAIR      10   5  80 S8        30.60S WCI  -2
FLORA*         FAIR      20  10  63 SW5       30.59F WCI  14
FAIRFIELD*     FAIR      17   9  70 S3        30.59F
HARRISBURG*    FAIR      20   9  61 W3        30.61F
ROBINSON*      FAIR      12   5  73 SW6       30.59F WCI   3
CARMI*         FAIR      15   8  72 S3        30.60F
$$

ABBREVIATIONS USED IN REMARKS
   TC - TEMPERATURE IN CELSIUS
  WCI - WIND CHILL INDEX
   HX - HEAT INDEX
  VSB - VISIBILITY
$$




USA.gov is the U.S. government's official web portal to all federal, state and local government web resources and services.